Other Public Products
Issued by NWS Grand Forks, ND

Home | Current Version | Previous Version | Text Only | Print | Product List | Glossary Off
Versions: 1 2 3 4 5 6 7 8 9 10 11 12 13 14 15 16 17 18 19 20 21 22 23 24 25 26 27 28 29 30 31 32 33 34 35 36 37 38 39 40 41 42 43 44 45 46 47 48 49 50

000
FPUS83 KFGF 191610
OPUFGF
PRAIRIE TO PINES WEATHER ROUNDUP
NATIONAL WEATHER SERVICE EASTERN NORTH DAKOTA/GRAND FORKS ND
1100 AM CDT SAT APR 19 2014

 **SATELLITE DATA USED TO AUGMENT SKY COVER AT AUTOMATED STATIONS**
 *****  WEATHER ACROSS EASTERN NORTH DAKOTA  *****

CITY           SKY/WX    TMP DP  RH WIND       PRES   REMARKS
GRAND FORKS    MOSUNNY   55  39  54 SW16      29.79S
GRAND FORKS AF SUNNY     58  36  43 W14G20    29.79S
GRAND CITY NWS   N/A     55 N/A N/A SW24        N/A
BUXTON         NOT AVBL
DEVILS LAKE    MOSUNNY   52  34  50 W23G31    29.79R
FARGO          MOSUNNY   59  38  45 W13       29.87R
WAHPETON ARPT  MOSUNNY   59  36  41 W12G21    29.91R
$$

 *****  WEATHER ACROSS CENTRAL AND WESTERN NORTH DAKOTA  *****

CITY           SKY/WX    TMP DP  RH WIND       PRES   REMARKS
JAMESTOWN      SUNNY     56  29  35 W17G28    29.86R
BISMARCK       SUNNY     55  29  36 W25G35    29.91R
MINOT          PTSUNNY   47  36  65 W23G39    29.81R
MINOT AFB      CLOUDY    47  40  78 W28G35    29.78R
GARRISON         N/A     47  36  65 W22G35    29.85R
WILLISTON      CLOUDY    44  36  73 W14       29.88R
DICKINSON      SUNNY     51  30  44 W31G38    29.89R
HETTINGER      SUNNY     53  26  35 W22G30    29.97R
$$

 *****  OTHER OBSERVATIONS NORTHEAST NORTH DAKOTA  *****

CITY           SKY/WX    TMP DP  RH WIND       PRES   REMARKS
WALHALLA         N/A     54  37  54 SW18G30   29.72R
LANGDON        PTSUNNY   48  36  61 W24G31    29.73R
CAVALIER       FAIR      54  37  54 SW18G25   29.73R
GRAFTON        FAIR      54  39  58 W21       29.76R
CANDO          FAIR      50  36  57 W29G38    29.75R HAZE
FORT TOTTEN      N/A     51  33  49 W15       29.95
ROLLA          FAIR      45  39  81 W28       29.71R
RUGBY          FAIR      48  37  66 W23G31    29.77R
 ***** THE ABOVE OBSERVATIONS ARE NON NWS ARE NOT QUALITY
        CONTROLLED AND MAY MIS-REPORT RAIN FOR SNOW...
$$

 *****  OTHER OBSERVATIONS SOUTHEAST NORTH DAKOTA *****

CITY           SKY/WX    TMP DP  RH WIND       PRES   REMARKS
COOPERSTOWN    FAIR      54  37  54 W21       29.82S
VALLEY CITY    FAIR      57  32  38 W18       29.86R
OAKES          FAIR      57  34  41 SW15G22   29.91S
GWINNER        SUNNY     59  37  44 W16       29.92R
BUFFALO        NOT AVBL
WYNDMERE       NOT AVBL
 ***** THE ABOVE OBSERVATIONS ARE NON NWS ARE NOT QUALITY
       CONTROLLED AND MAY MIS-REPORT RAIN FOR SNOW...
$$

  *****  WEATHER ACROSS NORTHERN MINNESOTA  *****

CITY           SKY/WX    TMP DP  RH WIND       PRES   REMARKS
FLAG ISLAND    CLOUDY    36  32  87 SE17      29.76F
WARROAD        MOSUNNY   48  43  81 S17G23    29.75F
ROSEAU         MOSUNNY   52  43  71 S20G25    29.74S
HALLOCK        CLOUDY    52  43  71 SW17      29.74S
THF RVR FALLS  SUNNY     54  41  62 SW20      29.80R
HALSTAD          N/A     57  37  47 W14         N/A
FOSSTON        PTSUNNY   55  43  62 S22G30    29.83R
BAUDETTE       CLOUDY    43  36  76 S12G20    29.81F
WASKISH        CLOUDY    46  37  71 SE8G21    29.84S
CROOKSTON      SUNNY     55  39  54 W17       29.82R
$$
  *****  WEATHER ACROSS CENTRAL AND WEST MINNESOTA  *****

CITY           SKY/WX    TMP DP  RH WIND       PRES   REMARKS
BEMIDJI        PTSUNNY   50  39  65 S14G20    29.85S
PARK RAPIDS    CLOUDY    50  40  68 S23G30    29.88R
WADENA         CLOUDY    50  41  71 S17G28    29.89S
DETROIT LAKES  PTSUNNY   54  43  66 SW17G23   29.88R
MOORHEAD       NOT AVBL
FERGUS FALLS   CLOUDY    55  43  62 SW13      29.87R
ELBOW LAKE     PTSUNNY   55  45  68 S17       29.90R
MORRIS MN      CLOUDY    55  45  67 S15       29.91R
STAPLES        CLOUDY    48  39  71 S20G29    29.92S
WHEATON        CLOUDY    61  43  51 NW10      29.93R
$$
  *****  WEATHER ELSEWHERE ACROSS MINNESOTA  *****

CITY           SKY/WX    TMP DP  RH WIND       PRES   REMARKS
DULUTH         CLOUDY    35  31  85 E16       30.05F
INTRNTL FALLS  CLOUDY    38  31  76 SE15G24   29.90F
ELY            CLOUDY    34  30  86 SE13G20   30.05R WCI  25
CLOQUET        PTSUNNY   43  25  49 SE9G21    30.03F
BRAINERD       CLOUDY    52  36  54 S22G28    29.96R
HIBBING        CLOUDY    37  32  82 SE13      30.00F
ALEXANDRIA     CLOUDY    50  42  74 S17G23    29.93R
SAINT CLOUD    MOSUNNY   48  36  63 S20G25    30.00S
MINNEAPOLIS    CLOUDY    50  34  54 SE18      30.09F
$$

  *****  WEATHER ACROSS SOUTH DAKOTA  *****

CITY           SKY/WX    TMP DP  RH WIND       PRES   REMARKS
SIOUX FALLS    MOSUNNY   64  44  48 S20       29.96S
BROOKINGS      NOT AVBL
WATERTOWN      CLOUDY    58  40  51 NW13      29.97R
HURON          CLOUDY    59  36  42 NW17      29.98S
SISSETON         N/A     59  38  45 NW16      29.92R
ABERDEEN       MOSUNNY   58  30  34 W13       29.96R
MITCHELL       CLOUDY    58  39  49 NW15      30.00R
PIERRE         MOSUNNY   56  29  35 W10       30.01R
MOBRIDGE       MOSUNNY   57  23  26 NW17      29.94R
RAPID CITY     SUNNY     56  14  19 NW7       30.03S
$$

  *****  SOME WEATHER IN NEARBY STATES *****

CITY           SKY/WX    TMP DP  RH WIND       PRES   REMARKS
GLASGOW MT     CLOUDY    42  35  76 W10       29.93R
GREAT FALLS MT SUNNY     49  14  24 SW17G23   29.92F
CHEYENNE WY    PTSUNNY   49  36  61 VRB5      30.08R
SCOTTSBLUFF NE CLOUDY    53  28  38 NE7       30.07R
OMAHA NE       PTSUNNY   69  43  38 S21G28    30.05F
DES MOINES IA  PTSUNNY   68  42  38 S18       30.15F
DAVENPORT IA   SUNNY     58  28  32 SE22      30.29F
CHICAGO IL     MOSUNNY   51  35  54 E8        30.36F
EAU CLAIRE WI  MOSUNNY   51  26  37 S21G28    30.19F
LA CROSSE WI   MOSUNNY   53  27  36 SE14      30.23F
$$

  *****  SOME NATIONAL WEATHER *****

CITY           SKY/WX    TMP DP  RH WIND       PRES   REMARKS
LA GUARDIA NY  PTSUNNY   60  23  24 NW10      30.26F
RALEIGH NC     CLOUDY    49  46  90 NE8       30.19R FOG
ATLANTA GA     CLOUDY    58  54  86 NE18      30.09S
NEW ORLEANS LA MOSUNNY   68  55  63 N8        30.18S
OKLAHOMA CITY  MOSUNNY   72  47  40 S16       30.18S
ALBUQUERQUE NM LGT RAIN  53  39  59 S25G35    30.18R
SALT LAKE CITY PTSUNNY   58  42  55 CALM      30.01S
LOS ANGELES CA MOSUNNY   61  55  81 W5        29.99S
BOISE ID       SUNNY     55  24  30 SE12      29.97S
SEATTLE WA     CLOUDY    47  36  65 SE12      29.77F
$$

*** WEATHER ACROSS MANITOBA...SASKATCHEWAN AND ONTARIO ***
                ***ONTARIO***

CITY           SKY/WX    TMP DP  RH WIND       PRES   REMARKS
GERALDTON      CLOUDY    37  19  48 SE18      30.37F
THUNDER BAY    CLOUDY    34  30  86 E15G24    30.31S WCI  24
SIOUX LOOKOUT  LGT SNOW  32  30  93 S16G33    29.99F FOG     WCI  21
TORONTO        MOSUNNY   46  30  53 NW5       30.46F
BIG TROUT LK   SUNNY     36  14  41 SE15G22   30.19F
PICKLE LAKE    CLOUDY    36  19  51 SE22G32   30.11F
DRYDEN         LGT RAIN  32  32 100 SE25G38   29.92F WCI  19
KENORA         DRIZZLE   36  32  87 SE20G30   29.79F FOG
$$
                *** MANITOBA***

CITY           SKY/WX    TMP DP  RH WIND       PRES   REMARKS
BRANDON        CLOUDY    41  37  87 W25G31    29.65R
DAUPHIN        MIX PCPN  34  32  93 NW3       29.59R FOG
ISLAND LAKE    SNOW      30  30 100 E10G23    29.89  VSB 1/2 WCI  21
PILOT MOUND      N/A     46  36  66 SW17G24     N/A
THE PAS        LGT SNOW  32  30  93 E9        29.72F WCI  24
THOMPSON       CLOUDY    36  16  44 E13       29.91F
WINNIPEG       MOSUNNY   48  39  71 SW15G23   29.69R
LYNN LAKE      PTSUNNY   30  10  43 E13       29.89F WCI  20
CHURCHILL      SUNNY     27  16  63 SE9       30.24F WCI  17
GILLAM         PTSUNNY   30  16  55 NE7       30.08F WCI  23
$$
                ***SASKATCHEWAN***

CITY           SKY/WX    TMP DP  RH WIND       PRES   REMARKS
ESTEVAN        CLOUDY    36  34  93 NW22G30   29.82
KINDERSLEY     CLOUDY    34  30  86 W8        29.87R
LLOYDMINSTER   PTSUNNY   34  30  86 NW7       29.82S
PRINCE ALBERT  CLOUDY    30  27  86 NW10      29.79R WCI  21
REGINA         CLOUDY    34  30  86 NW22G30   29.82R WCI  22
YORKTON        CLOUDY    32  30  93 NW15      29.68R WCI  22



USA.gov is the U.S. government's official web portal to all federal, state and local government web resources and services.